Flag for Laos Weather past 2 weeks in Vientiane, Laos

Now
99 °F

Scattered clouds.


Feels Like: 112 °F
Forecast: 77 / 89 °F
Wind: 5 mph from South

Location: Vientiane Airport

Current Time: Jul 5, 2015 at 5:21:23 PM

Latest Report: Jul 5, 2015 at 4:00 PM


Visibility: N/A

Pressure: 29.50 "Hg

Humidity: 47%

Dew point: 75 °F

Location of VientianeLocation

Historic Weather in Vientiane — Graph

°F

Vientiane temperature yesterday

Maximum temperature yesterday: 100 °F (at 4:00 PM)
Minimum temperature yesterday: 82 °F (at 6:00 AM)
Average temperature yesterday: 93 °F

Past Weeks' High & Low Weather Summary

 TemperatureHumidityPressure
High100 °F (Jul 4, 4:00 PM)94% (Jun 21, 7:00 AM)29.89 "Hg (Jun 21, 7:00 AM)
Low77 °F (Jun 28, 6:00 AM)39% (Jul 1, 3:00 PM)29.24 "Hg (Jul 4, 4:00 PM)
Average89 °F63%29.65 "Hg
* Reported Jun 20 4:00 PM — Jul 5 4:00 PM, Vientiane, Weather by CustomWeather, © 2015

Note: Actual official high and low records may vary slightly from our data, if they occured in-between our weather recording intervals... More about our weather records

Advertising

Vientiane weather history for previous 24 hours

 ConditionsComfort  
Time TempWeatherWind HumidityBarometerVisibility
4:00 PM
Sun, Jul 5
99 °FScattered clouds.5 mph47%29.50 "HgN/A
3:30 PM99 °FScattered clouds.2 mph44%29.56 "HgN/A
3:00 PM99 °FScattered clouds.2 mph44%29.56 "HgN/A
2:30 PM99 °FScattered clouds.2 mph44%29.56 "HgN/A
2:00 PM99 °FScattered clouds.5 mph44%29.56 "HgN/A
1:30 PM97 °FScattered clouds.2 mph47%29.59 "HgN/A
1:00 PM97 °FScattered clouds.2 mph47%29.59 "HgN/A
12:30 PM93 °FScattered clouds.2 mph53%29.59 "HgN/A
12:00 PM93 °FScattered clouds.2 mph53%29.59 "HgN/A
11:00 AM91 °FScattered clouds.5 mph56%29.62 "HgN/A
10:30 AM90 °FScattered clouds.5 mph59%29.62 "HgN/A
10:00 AM90 °FScattered clouds.5 mph59%29.62 "HgN/A
9:30 AM88 °FPartly sunny.2 mph70%29.62 "HgN/A
9:00 AM88 °FPartly sunny.2 mph70%29.62 "HgN/A
8:30 AM84 °FPartly sunny.2 mph79%29.59 "Hg6 mi
8:00 AM84 °FPartly sunny.2 mph79%29.59 "Hg6 mi
7:30 AM82 °FPartly sunny.2 mph79%29.59 "Hg5 mi
7:00 AM82 °FPartly sunny.2 mph79%29.59 "Hg5 mi
6:30 AM82 °FScattered clouds.2 mph79%29.59 "Hg4 mi
6:00 AM82 °FScattered clouds.2 mph79%29.59 "Hg4 mi
11:00 PM
Sat, Jul 4
86 °FFog.2 mph70%29.56 "Hg2 mi
10:30 PM86 °FFog.2 mph70%29.59 "Hg2 mi
10:00 PM88 °FFog.2 mph66%29.56 "Hg2 mi
9:30 PM88 °FFog.2 mph66%29.53 "Hg2 mi
8:30 PM88 °FFog.5 mph66%29.53 "Hg2 mi
8:00 PM90 °FFog.5 mph63%29.53 "Hg2 mi
7:30 PM95 °FThunderstorms. Passing clouds.7 mph50%29.53 "Hg2 mi
7:00 PM97 °FPassing clouds.2 mph47%29.53 "Hg4 mi
6:30 PM97 °FPartly sunny.5 mph47%29.24 "HgN/A
6:00 PM99 °FPartly sunny.5 mph44%29.24 "HgN/A
5:30 PM97 °FPartly sunny.5 mph47%29.24 "HgN/A
5:00 PM99 °FPartly sunny.5 mph44%29.24 "HgN/A
Weather by CustomWeather, © 2015

See weather overviewHow to use our weather pages